When you browse on this site, cookies collect data to enhance your experience and personalize the content and advertising you see.
Visit our Privacy Policy to learn more. By continuing to use the site, you agree to this use of cookies and data.
  • In Hungary
  • List of Countries
  • For 7 days
  • Water Temperature
  • Satellite Maps
  • Weather Map
  • News
  • Weather Widgets
  • user-avatar
    Login

    Hourly Weather Bournemouth

    Today, 14 December, Friday

    Time Temperature Precipitation Wind Pressure Humidity
    00:00 -2°C° 0 mm 6 mps 764 mmHg 82%
    01:00 -2°C° 0 mm 6 mps 764 mmHg 82%
    02:00 -1°C° 0 mm 5 mps 764 mmHg 82%
    03:00 -1°C° 0 mm 5 mps 764 mmHg 82%
    04:00 -1°C° 0 mm 5 mps 764 mmHg 81%
    05:00 -1°C° 0 mm 5 mps 764 mmHg 80%
    06:00 -3°C° 0 mm 6 mps 764 mmHg 79%
    07:00 -1°C° 0 mm 5 mps 765 mmHg 79%
    08:00 -1°C° 0 mm 5 mps 765 mmHg 78%
    09:00 -1°C° 0 mm 5 mps 765 mmHg 78%
    10:00 0°C° 0 mm 5 mps 766 mmHg 74%
    11:00 +2°C° 0 mm 5 mps 766 mmHg 70%
    12:00 +3°C° 0 mm 5 mps 766 mmHg 66%
    13:00 +3°C° 0 mm 5 mps 766 mmHg 68%
    14:00 +3°C° 0 mm 5 mps 766 mmHg 70%
    15:00 +4°C° 0 mm 4 mps 766 mmHg 72%
    16:00 +3°C° 0 mm 4 mps 766 mmHg 75%
    17:00 +1°C° 0 mm 5 mps 766 mmHg 77%
    18:00 0°C° 0 mm 5 mps 766 mmHg 80%
    19:00 0°C° 0 mm 5 mps 765 mmHg 79%
    20:00 -1°C° 0 mm 6 mps 765 mmHg 79%
    21:00 -1°C° 0 mm 6 mps 765 mmHg 78%
    22:00 +1°C° 0 mm 6 mps 765 mmHg 77%
    23:00 +1°C° 0 mm 6 mps 765 mmHg 75%

    Tomorrow, 15 December, Saturday

    Time Temperature Precipitation Wind Pressure Humidity
    00:00 0°C° 0 mm 7 mps 764 mmHg 74%
    01:00 0°C° 0 mm 7 mps 764 mmHg 73%
    02:00 +1°C° 0 mm 8 mps 763 mmHg 72%
    03:00 +1°C° 0 mm 8 mps 763 mmHg 72%
    04:00 +1°C° 0 mm 9 mps 762 mmHg 72%
    05:00 +1°C° 0 mm 9 mps 761 mmHg 72%
    06:00 +2°C° 0 mm 10 mps 760 mmHg 72%
    07:00 +2°C° 0.2 mm 10 mps 760 mmHg 73%
    08:00 +2°C° 0.2 mm 11 mps 759 mmHg 75%
    09:00 +2°C° 0.2 mm 12 mps 758 mmHg 76%
    10:00 +3°C° 1.3 mm 12 mps 757 mmHg 81%
    11:00 +3°C° 1.3 mm 12 mps 756 mmHg 85%
    12:00 +3°C° 1.3 mm 13 mps 755 mmHg 89%
    13:00 +4°C° 1.4 mm 12 mps 754 mmHg 91%
    14:00 +5°C° 1.4 mm 12 mps 753 mmHg 92%
    15:00 +6°C° 1.4 mm 11 mps 752 mmHg 94%
    16:00 +7°C° 1.9 mm 11 mps 751 mmHg 91%
    17:00 +8°C° 1.9 mm 11 mps 751 mmHg 87%
    18:00 +9°C° 1.9 mm 11 mps 751 mmHg 84%
    19:00 +8°C° 0.1 mm 10 mps 751 mmHg 83%
    20:00 +7°C° 0.1 mm 10 mps 752 mmHg 82%
    21:00 +5°C° 0.1 mm 9 mps 752 mmHg 82%
    22:00 +5°C° 0 mm 9 mps 753 mmHg 81%
    23:00 +5°C° 0 mm 9 mps 753 mmHg 80%

    Day after tomorrow, 16 December, Sunday

    Time Temperature Precipitation Wind Pressure Humidity
    00:00 +5°C° 0 mm 9 mps 753 mmHg 80%
    01:00 +4°C° 0 mm 8 mps 754 mmHg 81%
    02:00 +4°C° 0 mm 7 mps 754 mmHg 82%
    03:00 +4°C° 0 mm 7 mps 754 mmHg 83%
    04:00 +3°C° 0.2 mm 7 mps 754 mmHg 84%
    05:00 +3°C° 0.2 mm 6 mps 754 mmHg 85%
    06:00 +3°C° 0.2 mm 6 mps 755 mmHg 87%
    07:00 +3°C° 0.1 mm 6 mps 755 mmHg 87%
    08:00 +3°C° 0.1 mm 5 mps 755 mmHg 87%
    09:00 +3°C° 0.1 mm 5 mps 755 mmHg 88%
    10:00 +5°C° 0.1 mm 6 mps 755 mmHg 84%
    11:00 +7°C° 0.1 mm 6 mps 755 mmHg 81%
    12:00 +8°C° 0.1 mm 7 mps 755 mmHg 78%
    13:00 +8°C° 0.5 mm 7 mps 755 mmHg 80%
    14:00 +8°C° 0.5 mm 7 mps 755 mmHg 81%
    15:00 +6°C° 0.5 mm 7 mps 755 mmHg 83%
    16:00 +7°C° 0.6 mm 6 mps 755 mmHg 85%
    17:00 +5°C° 0.6 mm 6 mps 755 mmHg 87%
    18:00 +5°C° 0.6 mm 6 mps 756 mmHg 89%
    19:00 +4°C° 0.1 mm 6 mps 756 mmHg 89%
    20:00 +5°C° 0.1 mm 5 mps 757 mmHg 90%
    21:00 +3°C° 0.1 mm 5 mps 757 mmHg 90%
    22:00 +3°C° 0 mm 5 mps 758 mmHg 90%
    23:00 +3°C° 0 mm 5 mps 758 mmHg 90%

    17 December, Monday

    Time Temperature Precipitation Wind Pressure Humidity
    00:00 +3°C° 0 mm 5 mps 759 mmHg 89%
    01:00 +3°C° 0 mm 5 mps 759 mmHg 89%
    02:00 +3°C° 0 mm 5 mps 759 mmHg 89%
    03:00 +3°C° 0 mm 4 mps 759 mmHg 89%
    04:00 +4°C° 0.1 mm 4 mps 759 mmHg 89%
    05:00 +4°C° 0.1 mm 4 mps 760 mmHg 89%
    06:00 +4°C° 0.1 mm 4 mps 760 mmHg 89%
    07:00 +3°C° 0.1 mm 5 mps 760 mmHg 90%
    08:00 +3°C° 0.1 mm 5 mps 761 mmHg 90%
    09:00 +5°C° 0.1 mm 5 mps 761 mmHg 90%
    10:00 +5°C° 0 mm 6 mps 761 mmHg 87%
    11:00 +6°C° 0 mm 7 mps 761 mmHg 84%
    12:00 +9°C° 0 mm 8 mps 761 mmHg 81%
    13:00 +9°C° 0.1 mm 8 mps 760 mmHg 82%
    14:00 +8°C° 0.1 mm 9 mps 760 mmHg 83%
    15:00 +8°C° 0.1 mm 9 mps 760 mmHg 84%
    16:00 +8°C° 0 mm 10 mps 759 mmHg 84%
    17:00 +8°C° 0 mm 11 mps 759 mmHg 85%
    18:00 +9°C° 0 mm 11 mps 758 mmHg 85%
    19:00 +9°C° 0.1 mm 12 mps 758 mmHg 85%
    20:00 +9°C° 0.1 mm 13 mps 758 mmHg 85%
    21:00 +10°C° 0.1 mm 13 mps 758 mmHg 85%
    22:00 +10°C° 0.1 mm 13 mps 757 mmHg 85%
    23:00 +10°C° 0.1 mm 14 mps 757 mmHg 84%

    18 December, Tuesday

    Time Temperature Precipitation Wind Pressure Humidity
    00:00 +10°C° 0.1 mm 14 mps 757 mmHg 83%
    01:00 +10°C° 0.1 mm 14 mps 756 mmHg 82%
    02:00 +10°C° 0.1 mm 14 mps 756 mmHg 81%
    03:00 +9°C° 0.1 mm 14 mps 755 mmHg 79%
    04:00 +9°C° 0 mm 15 mps 754 mmHg 77%
    05:00 +9°C° 0 mm 15 mps 754 mmHg 76%
    06:00 +9°C° 0 mm 15 mps 753 mmHg 74%
    07:00 +9°C° 0.4 mm 15 mps 752 mmHg 75%
    08:00 +7°C° 0.4 mm 16 mps 751 mmHg 76%
    09:00 +7°C° 0.4 mm 17 mps 750 mmHg 76%
    10:00 +7°C° 1.6 mm 17 mps 749 mmHg 79%
    11:00 +7°C° 1.6 mm 17 mps 748 mmHg 81%
    12:00 +7°C° 1.6 mm 18 mps 748 mmHg 84%
    13:00 +8°C° 1.5 mm 15 mps 747 mmHg 85%
    14:00 +8°C° 1.5 mm 12 mps 747 mmHg 86%
    15:00 +8°C° 1.5 mm 10 mps 747 mmHg 87%
    16:00 +7°C° 0.3 mm 9 mps 748 mmHg 87%
    17:00 +7°C° 0.3 mm 9 mps 748 mmHg 86%
    18:00 +6°C° 0.3 mm 9 mps 749 mmHg 86%
    19:00 +6°C° 0.1 mm 9 mps 750 mmHg 84%
    20:00 +6°C° 0.1 mm 10 mps 750 mmHg 83%
    21:00 +6°C° 0.1 mm 10 mps 751 mmHg 81%
    22:00 +5°C° 0.1 mm 10 mps 751 mmHg 81%
    23:00 +5°C° 0.1 mm 10 mps 752 mmHg 81%

    19 December, Wednesday

    Time Temperature Precipitation Wind Pressure Humidity
    00:00 +5°C° 0.1 mm 10 mps 752 mmHg 81%
    01:00 +5°C° 0.2 mm 10 mps 752 mmHg 82%
    02:00 +5°C° 0.2 mm 10 mps 752 mmHg 82%
    03:00 +6°C° 0.2 mm 10 mps 752 mmHg 83%
    04:00 +6°C° 0.4 mm 10 mps 751 mmHg 83%
    05:00 +6°C° 0.4 mm 10 mps 751 mmHg 83%
    06:00 +6°C° 0.4 mm 10 mps 751 mmHg 83%
    07:00 +6°C° 0.5 mm 10 mps 751 mmHg 83%
    08:00 +6°C° 0.5 mm 10 mps 751 mmHg 82%
    09:00 +6°C° 0.5 mm 10 mps 751 mmHg 82%
    10:00 +7°C° 0.3 mm 10 mps 750 mmHg 80%
    11:00 +7°C° 0.3 mm 11 mps 750 mmHg 78%
    12:00 +8°C° 0.3 mm 11 mps 750 mmHg 76%
    13:00 +7°C° 0.3 mm 10 mps 750 mmHg 77%
    14:00 +7°C° 0.3 mm 10 mps 749 mmHg 78%
    15:00 +7°C° 0.3 mm 10 mps 749 mmHg 79%
    16:00 +7°C° 0.3 mm 10 mps 749 mmHg 80%
    17:00 +6°C° 0.3 mm 9 mps 749 mmHg 82%
    18:00 +6°C° 0.3 mm 9 mps 749 mmHg 84%
    19:00 +6°C° 0.4 mm 9 mps 749 mmHg 84%
    20:00 +6°C° 0.4 mm 8 mps 749 mmHg 84%
    21:00 +6°C° 0.4 mm 8 mps 749 mmHg 84%
    22:00 +6°C° 0.3 mm 8 mps 748 mmHg 85%
    23:00 +6°C° 0.3 mm 8 mps 748 mmHg 85%
    Show more